SCP
0 0 0 0 0 0 0 0 0 0 0 0 0 0 0 0 0 0 0 0 0 0 0 0 0 0 0 0 0 0 0 0 0 0 0 0 0 0 0 0 0 0 0
0 0 0 0 0 0 0 0 0 0 0 0 0 0 0 0 0 0 0 0 0 0 0 0 0 0 0 0 0 0 0 0 0 0 0 0 0 0 0 0 0 0 0
0 0 0 0 0 0 0 0 0 0 0 -0 -0 0 0 0 0 0 0 0 0 0 0 0 0 0 0 0 0 0 0 0 0 0 0 0 0 0 0 0 0 0 0
0 0 0 0 0 0 0 0 0 0 0 0 0 0 0 0 0 0 0 0 0 0 0 0 0 0 0 0 0 0 0 0 0 0 0 0 0 0 0 0 0 0 0
-0 -0 -0 0 0 0 0 0 0 0 0 0 0 0 0 0 0 0 0 0 0 0 0 0 0 0 0 0 0 0 0 0 0 0 0 0 0 0 0 0 0 0 0
-0 -0 -0 0 0 0 0 0 0 0 0 0 0 0 0 0 0 0 0 0 0 0 0 0 0 0 0 0 0 0 0 0 0 0 0 0 0 0 0 0 0 0 0
-0 -0 -0 0 0 0 0 0 0 0 0 0 0 0 0 0 0 0 0 0 0 0 0 0 0 0 0 0 0 0 0 0 0 0 0 0 0 0 0 0 0 0 0
0 0 0 0 0 0 0 0 0 0 0 0 0 0 0 0 0 0 0 0 0 0 0 0 0 0 0 0 0 0 0 0 0 0 -0 -0 -0 0 0 0 0 0 0
0 0 0 0 0 0 0 0 0 0 0 0 0 0 0 0 0 0 0 0 0 0 0 0 0 0 0 0 0 0 0 0 0 0 -0 -0 -0 0 0 0 0 0 0
0 0 0 0 0 0 0 0 0 0 0 0 0 0 0 0 0 0 0 0 0 0 0 0 0 0 0 0 0 0 0 0 0 0 -0 0 0 0 0 0 0 0 0
0 0 0 0 0 0 0 0 0 0 0 0 0 0 0 0 0 0 0 0 0 0 0 0 0 0 0 0 0 0 0 0 0 0 0 0 0 0 0 0 0 0 0
0 0 0 0 0 0 0 0 0 0 0 0 0 0 0 0 0 0 0 0 0 0 0 0 0 0 0 0 0 0 0 0 0 0 0 0 0 0 0 0 0 0 0
0 0 0 0 0 0 0 0 0 0 0 0 0 0 0 0 0 0 0 0 0 0 0 0 0 0 0 0 0 0 0 0 0 0 0 0 0 0 0 0 0 0 0
0 0 0 0 0 0 0 0 0 0 0 0 0 0 0 0 0 0 0 0 0 0 0 0 0 0 0 0 0 0 0 0 0 0 0 0 0 0 0 0 0 0 0
0 0 0 0 0 0 0 0 0 0 0 0 0 0 0 0 0 0 0 0 0 0 0 0 0 0 0 0 0 0 0 0 0 0 0 0 0 0 0 0 0 0 0
0 0 0 0 0 0 -0 0 0 0 0 0 0 0 0 0 0 0 0 0 0 0 0 0 0 0 0 0 0 0 0 0 0 0 0 0 0 0 0 0 0 0 0
0 0 0 0 0 -0 0 0 0 0 0 0 0 0 0 0 0 0 0 0 0 0 0 0 0 0 0 0 0 0 0 0 0 0 0 0 0 0 0 0 0 0 0
0 0 0 0 0 0 0 0 0 0 0 0 0 0 0 0 0 0 0 0 0 0 0 0 0 0 0 0 0 0 0 0 0 0 0 0 0 0 0 0 0 0 0
-0 -0 -0 0 0 0 0 0 0 0 0 0 0 0 0 0 0 0 0 0 0 0 0 0 0 0 0 0 0 0 0 0 0 0 0 0 0 0 0 0 0 0 0
0 -0 -0 -0 0 0 0 0 0 0 0 0 0 0 0 0 0 0 0 0 0 0 0 0 0 0 0 0 0 0 0 0 0 0 0 0 0 0 0 0 0 0 0
0 -0 -0 0 0 0 0 0 0 0 0 0 0 0 0 0 0 0 0 0 0 0 0 0 0 0 0 0 0 0 0 0 0 0 0 0 0 -0 -0 -0 0 0 0
-0 -0 0 0 0 0 0 0 0 0 0 0 0 0 0 0 0 0 0 0 0 0 0 0 0 0 0 0 0 0 0 0 0 0 0 0 0 -0 -0 -0 0 0 0
0 0 0 0 0 0 0 0 0 0 0 0 0 0 0 0 0 0 0 0 0 0 0 0 0 0 0 0 0 0 0 0 0 0 0 0 0 0 0 0 0 0 0
0 0 0 0 0 0 0 0 0 0 0 0 0 0 0 0 0 0 0 0 0 0 0 0 0 0 0 0 0 0 0 0 0 0 0 0 0 0 0 0 0 0 0
0 0 0 0 0 0 0 0 0 0 0 0 0 0 0 0 0 0 0 0 0 0 0 0 0 0 0 0 0 0 0 0 0 0 0 0 0 0 0 0 0 0 0
0 0 0 0 0 0 0 0 0 0 0 0 0 0 0 0 0 0 0 0 0 0 0 0 0 0 0 0 0 0 0 0 0 0 0 0 0 0 0 0 0 0 0
Wind_Speed
11 11 11 11 10 10 9 9 8 7 7 7 7 7 7 7 6 6 5 5 6 5 5 5 5 4 4 4 3 3 3 2 1 2 2 3 3 4 5 4 5 5 5
10 10 10 10 9 9 8 7 7 7 6 6 7 7 7 7 6 6 6 6 5 5 4 5 4 4 5 4 3 4 3 2 1 2 3 3 4 4 4 5 5 5 5
9 10 10 9 8 7 7 6 6 6 6 6 7 7 6 6 6 6 5 5 4 4 3 3 2 3 4 3 3 3 2 3 1 1 3 3 3 3 4 4 5 4 6
8 8 8 6 6 6 5 5 5 5 6 6 6 6 6 6 6 6 5 5 5 4 4 3 2 1 1 2 2 3 2 3 2 2 3 3 3 3 2 3 4 4 5
7 7 6 5 5 5 5 5 4 5 6 5 5 5 5 5 5 5 5 5 5 5 5 4 3 2 2 2 2 2 2 2 2 2 3 3 3 3 3 3 4 5 5
6 6 5 5 5 5 4 4 5 5 5 5 5 5 5 4 6 8 6 4 4 4 4 4 3 2 4 7 8 8 5 3 3 2 3 4 5 4 3 3 3 3 5
5 5 5 5 5 4 5 5 5 4 4 5 4 4 4 4 8 9 9 4 4 4 3 3 2 2 4 4 7 9 8 9 6 4 4 5 5 4 3 4 4 3 5
5 5 5 5 5 4 4 4 3 3 3 2 2 2 2 4 7 9 9 6 4 5 4 2 1 2 3 4 5 6 7 7 7 4 5 7 7 7 5 4 4 4 5
5 5 5 5 5 4 4 2 1 2 2 1 2 2 1 2 5 8 8 4 4 6 5 4 2 2 6 6 5 6 8 7 7 8 9 10 12 12 7 2 2 2 4
5 5 5 5 5 4 2 1 1 1 1 2 2 2 1 0 4 6 7 3 4 4 5 5 5 6 9 8 4 4 6 7 7 10 10 10 7 7 7 4 4 2 2
5 5 4 4 4 3 1 1 1 2 2 2 2 1 1 0 3 6 7 2 2 4 4 4 5 11 12 11 7 4 7 8 6 6 6 7 6 5 4 3 4 4 3
5 5 4 3 2 3 3 3 3 3 3 2 2 1 1 2 4 6 8 7 4 2 4 5 7 13 13 11 6 6 9 6 3 4 4 5 5 5 5 5 4 4 5
5 4 3 3 3 3 3 4 3 4 3 2 2 1 1 2 3 7 8 9 9 3 4 9 11 12 10 6 8 10 6 3 3 3 4 4 4 5 5 4 4 3 3
4 3 3 3 3 3 3 3 3 3 3 3 2 2 1 2 3 4 5 5 7 6 6 9 11 10 8 7 7 6 4 3 3 3 4 4 4 4 3 3 3 3 3
3 2 2 2 3 3 3 2 3 2 2 3 2 1 0 2 4 5 5 5 5 5 5 4 4 5 6 6 5 5 5 5 5 5 4 4 4 4 4 3 2 2 2
2 2 2 2 2 3 3 2 3 2 2 3 3 2 2 4 7 8 9 9 9 5 2 3 3 4 4 5 5 5 5 5 5 5 5 5 5 5 5 4 3 2 2
3 2 1 2 3 3 3 3 1 2 2 3 3 4 4 6 8 8 9 9 8 5 3 3 3 4 4 4 4 4 4 5 5 5 5 5 6 5 5 4 4 3 3
2 1 2 2 3 3 3 3 2 2 1 3 4 5 7 7 8 8 7 6 5 5 3 3 3 4 4 4 4 4 4 5 5 6 6 6 5 5 5 5 4 3 3
2 1 1 1 2 2 3 3 2 2 1 1 2 4 5 5 5 6 4 3 2 3 3 3 3 3 3 4 4 4 4 4 5 5 5 6 6 5 5 5 5 5 3
2 3 3 2 2 2 2 3 2 2 1 1 1 2 2 3 3 4 3 2 2 2 2 3 3 3 3 4 4 4 5 5 6 5 6 6 6 5 5 6 5 4 3
2 1 2 3 2 2 2 2 2 2 2 1 2 2 1 1 1 1 1 2 2 2 2 2 3 3 3 3 4 4 5 5 5 5 6 6 6 6 5 5 5 4 4
2 2 2 2 2 2 3 3 3 3 2 1 1 2 1 1 0 1 1 2 1 1 1 2 2 2 3 3 3 4 5 5 6 6 6 6 6 6 6 5 5 4 4
2 3 3 3 3 4 3 2 2 2 2 1 1 0 1 1 0 0 1 1 1 2 2 2 2 2 3 3 3 3 4 5 5 6 6 6 6 6 5 5 5 5 4
2 4 5 4 3 3 3 2 2 2 2 1 1 0 0 0 0 0 1 1 2 2 2 2 2 3 5 4 3 3 4 5 6 5 6 6 6 6 5 4 5 5 4
2 4 4 4 4 4 3 3 2 2 1 1 1 1 1 1 0 1 1 1 2 2 3 2 2 3 5 6 6 6 8 10 8 6 5 4 4 5 5 5 4 4 4
3 4 4 4 4 4 4 3 3 2 2 1 1 2 2 2 1 1 1 1 2 2 2 2 2 4 5 5 7 9 10 10 10 10 6 4 5 5 6 4 5 4 5
Wind_Direction
77 79 81 79 79 80 80 79 78 75 72 70 67 66 60 52 46 48 48 52 54 46 43 49 41 38 32 21 25 32 33 66 53 299 294 311 328 325 317 310 297 292 294
81 82 82 80 80 81 80 78 77 76 71 71 68 64 61 55 46 47 45 44 49 47 41 44 34 42 34 23 28 28 22 37 63 324 310 319 315 314 312 312 316 314 304
85 85 82 79 80 80 80 77 75 75 73 71 71 67 60 51 44 38 39 38 34 30 32 40 28 44 27 13 19 14 357 3 18 338 303 298 297 316 326 315 315 308 310
88 86 83 81 81 82 81 77 75 78 81 82 78 73 64 54 44 32 30 32 21 10 6 9 10 41 28 2 1 346 339 344 340 333 305 301 297 299 315 314 321 316 310
93 89 89 87 85 83 78 74 72 76 88 93 86 71 62 56 39 33 22 22 13 3 359 0 359 32 29 358 339 317 324 320 318 316 305 307 303 314 315 302 306 308 303
102 102 100 93 89 86 84 78 74 74 81 85 79 71 56 44 28 28 28 15 6 2 351 345 342 20 6 358 345 336 320 292 288 281 283 291 287 283 280 284 294 322 309
108 107 104 101 95 94 94 85 82 80 86 93 93 86 67 26 23 20 22 27 11 359 347 339 339 8 1 345 337 337 330 317 295 246 257 270 271 270 276 288 281 268 262
106 105 104 103 101 97 93 91 89 91 100 111 119 107 70 22 21 20 21 27 17 3 352 342 340 328 327 335 330 328 319 310 298 277 247 261 264 265 245 245 261 282 277
115 113 113 114 110 102 98 97 94 96 103 127 137 130 88 0 8 20 29 15 7 355 349 349 325 295 302 324 326 321 318 310 305 304 291 282 280 278 265 236 264 285 304
123 123 122 118 117 116 121 121 104 113 129 128 126 156 156 333 350 11 25 16 360 344 336 333 323 309 308 314 298 295 304 302 316 323 323 320 310 303 297 223 218 229 264
125 117 116 120 130 132 110 68 73 86 87 92 111 112 150 337 353 5 14 14 337 328 327 322 315 319 319 315 302 257 262 279 296 301 306 311 315 312 304 279 219 202 215
117 112 114 126 133 109 79 54 57 78 86 75 74 43 13 7 12 8 15 13 4 327 312 309 309 318 322 323 319 303 303 305 299 313 320 317 315 313 307 301 278 236 220
110 115 119 110 93 91 93 86 68 65 80 76 81 69 13 358 354 6 8 360 358 343 305 308 316 326 333 335 338 342 342 342 335 328 317 302 289 290 303 317 324 318 298
120 132 128 110 92 79 85 95 96 86 83 77 73 64 6 339 342 345 343 338 342 341 332 325 331 343 356 351 347 348 343 328 318 305 299 298 309 324 329 329 330 341 351
134 144 147 135 130 114 96 93 112 129 156 143 148 151 83 326 310 324 324 321 320 312 324 338 354 350 354 350 345 345 346 352 350 340 337 334 331 334 326 327 338 352 352
139 157 158 149 144 141 127 75 52 118 119 127 161 182 251 265 301 323 330 330 332 331 12 4 345 344 347 348 348 348 351 353 346 347 350 346 338 334 328 329 340 346 323
154 167 167 159 163 168 163 154 152 339 324 301 281 278 279 294 312 327 338 344 5 38 41 4 351 347 348 353 356 358 351 341 345 355 353 345 342 340 338 335 335 335 325
143 158 159 174 171 171 178 179 173 177 268 306 300 287 295 304 316 328 347 13 16 18 18 5 357 354 358 3 3 359 352 351 353 350 346 343 344 342 340 336 330 322 315
146 147 123 137 147 151 156 158 164 175 191 260 322 327 327 337 357 6 29 52 23 358 359 4 3 4 6 6 3 357 353 348 344 341 340 339 338 338 337 333 328 326 331
166 164 143 129 123 121 125 134 141 143 142 156 271 292 333 20 18 359 11 20 25 6 6 12 10 16 11 7 1 355 351 347 344 340 335 333 331 329 329 329 327 323 314
178 164 134 118 126 135 134 140 142 139 148 181 241 261 215 81 346 337 348 357 6 11 23 31 26 15 9 4 360 355 350 337 331 329 328 327 327 325 323 324 324 323 323
159 157 150 146 139 130 132 139 139 142 158 176 261 306 356 60 12 348 334 335 353 28 62 73 48 21 9 3 355 348 339 331 329 329 325 322 321 320 323 328 334 333 336
151 151 149 145 140 136 126 128 138 147 162 195 217 278 5 19 331 320 324 339 22 51 57 62 53 17 1 356 350 341 326 314 306 303 306 311 315 317 319 322 331 339 340
147 155 152 150 143 139 145 155 161 165 174 196 211 227 222 216 248 348 359 16 62 77 75 61 49 26 13 358 340 329 313 302 294 283 279 283 298 307 316 325 332 340 343
141 153 158 157 156 159 163 168 175 185 204 212 198 173 155 152 116 31 34 68 89 94 89 66 34 15 6 359 351 338 329 326 323 312 286 282 304 319 326 331 338 343 352
158 160 161 160 162 167 169 175 189 200 211 207 176 161 158 152 141 84 61 77 95 104 98 64 43 28 9 355 347 342 340 340 340 339 333 332 346 349 347 339 346 352 355